sat.trackr.live / text

‹ back to catalog

STARLINK-31491

NORAD 59011 · 2024-036P

PAYLOAD ACTIVE UNKNOWN

§ Identity

Operator
Country
US
Launch date
2024-02-23
Launch site
AFWTR
Launch vehicle
Mass (kg)
RCS (m²)

Purposes: comms

External: N2YO · Heavens-Above · Gunter

§ Orbital elements

Epoch: 2026-05-25T03:29:27.627360Z

Period
94.11 min
Inclination
53.1604°
Eccentricity
0.0001100
Mean motion
15.30195795 rev/d
Perigee alt
474.5 km
Apogee alt
476.0 km
Semi-major
6,853.4 km
B*
-7.6398e-6
RAAN
83.3762°
Arg perigee
79.9923°
Mean anomaly
280.1202°
Rev number
12,702

§ Raw data

STARLINK-314911 59011U 24036P   26145.14545865 -.00000585  00000+0 -76398-5 0  99942 59011  53.1604  83.3762 0001100  79.9923 280.1202 15.30195795127029

JSON: /api/v1/satellites/59011 · /tle

For live sub-satellite position, see the globe view (requires WebGL).

§ Visibility from observer

Set your observer location to see the next 7 days of passes ≥ 10°. The values pass through the URL so the page stays shareable.

No JS? Fill the form by hand. The geolocation button needs JavaScript.